Oak Island, MN

6:29 PM CST on February 13, 2016 (GMT -0600)
Flag Island

Weather History for KFGN - October, 2013

Change the Weather History Date:

Monday, October 28, 2013

  Actual Average Record
Temperature  
Mean Temperature 27 °F -  
Max Temperature 30 °F 38 °F 55 °F (2005)
Min Temperature 24 °F 30 °F 23 °F (2012)
Degree Days  
Heating Degree Days 38    
Moisture  
Dew Point 17 °F    
Average Humidity 65    
Maximum Humidity 74    
Minimum Humidity 51    
Precipitation  
Precipitation 0.00 in - - ()
Sea Level Pressure  
Sea Level Pressure 30.50 in    
Wind  
Wind Speed 9 mph (North)    
Max Wind Speed 15 mph    
Max Gust Speed 20 mph    
Visibility 10 miles    
Events      
Averages and records for this station are not official NWS values.
T = Trace of Precipitation, MM = Missing Value Source: NWS Daily Summary

Daily Weather History Graph

Daily Weather History Graph

Search for Another Location

Airport or City:

Trip Planner

Search our weather history database for the weather conditions in past years. The results will help you decide how hot, cold, wet, or windy it might be!

Date:

Astronomy

Oct. 28, 2013 Rise Set
Actual Time 8:01 AM CDT 6:04 PM CDT
Civil Twilight 7:28 AM CDT 6:37 PM CDT
Nautical Twilight 6:51 AM CDT 7:14 PM CDT
Astronomical Twilight 6:14 AM CDT 7:51 PM CDT
Moon 1:24 AM CDT (10/28) 3:14 PM CDT (10/28)
Length of Visible Light 11h 08m
Length of Day
10h 02m
Waning Crescent, 34% of the Moon is Illuminated
Oct 28
Waning Crescent
Nov 3
New
Nov 9
First Quarter
Nov 17
Full
Nov 25
Last Quarter

Hourly Weather History & Observations

Time (CDT) Temp. Windchill Dew Point Humidity Pressure Visibility Wind Dir Wind Speed Gust Speed Precip Events Conditions
12:14 AM 28.4 °F 17.5 °F 19.4 °F 69% 30.41 in 10.0 mi NNE 13.8 mph - N/A   Overcast
12:33 AM 28.4 °F 17.0 °F 17.6 °F 64% 30.41 in 10.0 mi North 15.0 mph - N/A   Overcast
12:53 AM 26.6 °F 16.2 °F 17.6 °F 69% 30.42 in 10.0 mi NNE 11.5 mph 19.6 mph N/A   Overcast
1:14 AM 26.6 °F 15.2 °F 17.6 °F 69% 30.43 in 10.0 mi NNE 13.8 mph - N/A   Overcast
1:33 AM 26.6 °F 15.2 °F 17.6 °F 69% 30.43 in 10.0 mi North 13.8 mph - N/A   Overcast
1:53 AM 26.6 °F 14.7 °F 19.4 °F 74% 30.43 in 10.0 mi NNE 15.0 mph 18.4 mph N/A   Overcast
2:14 AM 26.6 °F 16.2 °F 17.6 °F 69% 30.44 in 10.0 mi NE 11.5 mph - N/A   Overcast
2:33 AM 26.6 °F 16.2 °F 17.6 °F 69% 30.44 in 10.0 mi NE 11.5 mph - N/A   Overcast
2:53 AM 26.6 °F 16.2 °F 17.6 °F 69% 30.44 in 10.0 mi NE 11.5 mph - N/A   Overcast
3:13 AM 26.6 °F 18.2 °F 19.4 °F 74% 30.45 in 10.0 mi NNE 8.1 mph - N/A   Overcast
3:33 AM 26.6 °F 16.8 °F 19.4 °F 74% 30.46 in 10.0 mi North 10.4 mph - N/A   Overcast
3:54 AM 26.6 °F 19.1 °F 17.6 °F 69% 30.46 in 10.0 mi NE 6.9 mph - N/A   Overcast
4:13 AM 26.6 °F 17.5 °F 19.4 °F 74% 30.46 in 10.0 mi North 9.2 mph - N/A   Overcast
4:33 AM 26.6 °F 18.2 °F 17.6 °F 69% 30.47 in 10.0 mi ENE 8.1 mph - N/A   Overcast
4:54 AM 26.6 °F 17.5 °F 17.6 °F 69% 30.47 in 10.0 mi NNE 9.2 mph - N/A   Overcast
5:13 AM 26.6 °F 19.1 °F 17.6 °F 69% 30.48 in 10.0 mi NE 6.9 mph - N/A   Overcast
5:33 AM 26.6 °F 18.2 °F 17.6 °F 69% 30.49 in 10.0 mi NNE 8.1 mph - N/A   Overcast
5:54 AM 26.6 °F 22.6 °F 17.6 °F 69% 30.49 in 10.0 mi North 3.5 mph - N/A   Overcast
6:13 AM 26.6 °F 18.2 °F 17.6 °F 69% 30.50 in 10.0 mi NNE 8.1 mph - N/A   Overcast
6:33 AM 26.6 °F 20.0 °F 19.4 °F 74% 30.51 in 10.0 mi North 5.8 mph - N/A   Overcast
6:54 AM 24.8 °F 15.3 °F 17.6 °F 74% 30.51 in 10.0 mi NNW 9.2 mph - N/A   Overcast
7:13 AM 26.6 °F 16.8 °F 17.6 °F 69% 30.51 in 10.0 mi North 10.4 mph - N/A   Overcast
7:33 AM 26.6 °F 16.8 °F 17.6 °F 69% 30.51 in 10.0 mi NNW 10.4 mph - N/A   Overcast
7:54 AM 26.6 °F 18.2 °F 17.6 °F 69% 30.51 in 10.0 mi North 8.1 mph - N/A   Overcast
8:13 AM 24.8 °F 19.1 °F 15.8 °F 69% 30.52 in 10.0 mi NE 4.6 mph - N/A   Overcast
8:33 AM 24.8 °F 15.3 °F 17.6 °F 74% 30.53 in 10.0 mi NW 9.2 mph - N/A   Overcast
8:53 AM 24.8 °F 15.3 °F 17.6 °F 74% 30.53 in 10.0 mi NNW 9.2 mph - N/A   Overcast
9:13 AM 24.8 °F 14.6 °F 15.8 °F 69% 30.54 in 10.0 mi NNW 10.4 mph - N/A   Overcast
9:33 AM 24.8 °F 17.9 °F 15.8 °F 69% 30.54 in 10.0 mi North 5.8 mph 9.2 mph N/A   Mostly Cloudy
9:53 AM 24.8 °F 19.1 °F 17.6 °F 74% 30.55 in 10.0 mi North 4.6 mph - N/A   Overcast
10:13 AM 26.6 °F 18.2 °F 17.6 °F 69% 30.55 in 10.0 mi North 8.1 mph - N/A   Overcast
10:33 AM 24.8 °F 17.9 °F 15.8 °F 69% 30.56 in 10.0 mi North 5.8 mph - N/A   Overcast
10:53 AM 26.6 °F 19.1 °F 17.6 °F 69% 30.56 in 10.0 mi North 6.9 mph - N/A   Overcast
11:14 AM 26.6 °F 21.2 °F 15.8 °F 64% 30.57 in 10.0 mi North 4.6 mph - N/A   Mostly Cloudy
11:21 AM 26.6 °F 21.2 °F 15.8 °F 64% 30.57 in 10.0 mi NNW 4.6 mph - N/A   Mostly Cloudy
11:41 AM 26.6 °F 21.2 °F 15.8 °F 64% 30.57 in 10.0 mi North 4.6 mph - N/A   Mostly Cloudy
11:55 AM 26.6 °F 20.0 °F 15.8 °F 64% 30.57 in 10.0 mi NNW 5.8 mph - N/A   Mostly Cloudy
12:13 PM 26.6 °F 22.6 °F 15.8 °F 64% 30.57 in 10.0 mi North 3.5 mph - N/A   Overcast
12:34 PM 26.6 °F 18.2 °F 15.8 °F 64% 30.57 in 10.0 mi North 8.1 mph - N/A   Scattered Clouds
12:53 PM 26.6 °F 20.0 °F 15.8 °F 64% 30.56 in 10.0 mi NW 5.8 mph - N/A   Scattered Clouds
1:14 PM 26.6 °F 19.1 °F 15.8 °F 64% 30.55 in 10.0 mi NNW 6.9 mph - N/A   Clear
1:33 PM 28.4 °F 20.4 °F 15.8 °F 59% 30.54 in 10.0 mi NW 8.1 mph - N/A   Scattered Clouds
1:53 PM 28.4 °F 22.2 °F 15.8 °F 59% 30.54 in 10.0 mi NNW 5.8 mph - N/A   Clear
2:12 PM 28.4 °F 21.2 °F 14.0 °F 55% 30.53 in 10.0 mi NNW 6.9 mph - N/A   Clear
2:33 PM 28.4 °F 22.2 °F 14.0 °F 55% 30.52 in 10.0 mi NW 5.8 mph - N/A   Clear
2:53 PM 28.4 °F 21.2 °F 15.8 °F 59% 30.51 in 10.0 mi North 6.9 mph - N/A   Clear
3:13 PM 28.4 °F 20.4 °F 15.8 °F 59% 30.51 in 10.0 mi North 8.1 mph - N/A   Clear
3:33 PM 28.4 °F 24.6 °F 14.0 °F 55% 30.50 in 10.0 mi North 3.5 mph - N/A   Clear
3:54 PM 28.4 °F 19.7 °F 15.8 °F 59% 30.50 in 10.0 mi North 9.2 mph - N/A   Clear
4:13 PM 28.4 °F 22.2 °F 14.0 °F 55% 30.49 in 10.0 mi North 5.8 mph - N/A   Clear
4:33 PM 28.4 °F 24.6 °F 12.2 °F 51% 30.49 in 10.0 mi NNW 3.5 mph - N/A   Clear
4:54 PM 30.2 °F 23.4 °F 14.0 °F 51% 30.49 in 10.0 mi NW 6.9 mph - N/A   Clear
5:13 PM 30.2 °F 23.4 °F 14.0 °F 51% 30.49 in 10.0 mi NNW 6.9 mph - N/A   Clear
5:33 PM 30.2 °F 25.4 °F 14.0 °F 51% 30.48 in 10.0 mi North 4.6 mph - N/A   Clear
5:53 PM 30.2 °F 23.4 °F 14.0 °F 51% 30.48 in 10.0 mi North 6.9 mph - N/A   Clear
6:13 PM 28.4 °F 19.1 °F 15.8 °F 59% 30.48 in 10.0 mi NNW 10.4 mph - N/A   Clear
6:33 PM 28.4 °F 21.2 °F 15.8 °F 59% 30.48 in 10.0 mi North 6.9 mph - N/A   Clear
6:53 PM 28.4 °F 19.7 °F 15.8 °F 59% 30.48 in 10.0 mi NNW 9.2 mph - N/A   Clear
7:13 PM 28.4 °F 21.2 °F 15.8 °F 59% 30.48 in 10.0 mi North 6.9 mph - N/A   Clear
7:33 PM 28.4 °F 21.2 °F 15.8 °F 59% 30.48 in 10.0 mi North 6.9 mph - N/A   Clear
7:53 PM 28.4 °F 20.4 °F 15.8 °F 59% 30.48 in 10.0 mi NNW 8.1 mph - N/A   Clear
8:14 PM 28.4 °F 21.2 °F 15.8 °F 59% 30.48 in 10.0 mi North 6.9 mph - N/A   Clear
8:33 PM 28.4 °F 21.2 °F 15.8 °F 59% 30.48 in 10.0 mi North 6.9 mph - N/A   Clear
8:53 PM 28.4 °F 21.2 °F 15.8 °F 59% 30.48 in 10.0 mi NNW 6.9 mph - N/A   Clear
9:13 PM 28.4 °F 22.2 °F 15.8 °F 59% 30.48 in 10.0 mi North 5.8 mph - N/A   Clear
9:33 PM 28.4 °F 21.2 °F 15.8 °F 59% 30.48 in 10.0 mi North 6.9 mph - N/A   Clear
9:53 PM 28.4 °F 20.4 °F 15.8 °F 59% 30.48 in 10.0 mi North 8.1 mph - N/A   Clear
10:13 PM 28.4 °F 20.4 °F 15.8 °F 59% 30.49 in 10.0 mi NNW 8.1 mph - N/A   Clear
10:33 PM 28.4 °F 20.4 °F 17.6 °F 64% 30.49 in 10.0 mi WNW 8.1 mph - N/A   Clear
10:53 PM 26.6 °F 16.8 °F 17.6 °F 69% 30.49 in 10.0 mi NNW 10.4 mph - N/A   Clear
11:13 PM 26.6 °F 16.2 °F 17.6 °F 69% 30.49 in 10.0 mi North 11.5 mph - N/A   Clear
11:33 PM 26.6 °F 16.8 °F 19.4 °F 74% 30.48 in 10.0 mi North 10.4 mph - N/A   Clear
11:53 PM 26.6 °F 18.2 °F 19.4 °F 74% 30.47 in 10.0 mi North 8.1 mph - N/A   Clear